This is the latest recevied weather packets stored in our database for station/object ZR6G-15. If no packets are shown the sender has not sent any weather packets the latest 10 day(s).
| Time | Temp. | Humidity | Pressure | Rain* | Wind** | Luminosity | Snow |
|---|---|---|---|---|---|---|---|
| 1777607807 | 11.67° C | 54% | 1015.1 hPa | - | - | - | - |
| 1777607203 | 12.78° C | 54% | 1014.8 hPa | - | - | - | - |
| 1777606598 | 12.78° C | 54% | 1014.5 hPa | - | - | - | - |
| 1777605993 | 12.78° C | 58% | 1013.8 hPa | - | - | - | - |
| 1777605389 | 13.89° C | 58% | 1013.7 hPa | - | - | - | - |
| 1777604784 | 13.89° C | 58% | 1013.5 hPa | - | - | - | - |
| 1777604179 | 13.89° C | 58% | 1013.3 hPa | - | - | - | - |
| 1777603575 | 13.89° C | 58% | 1013.2 hPa | - | - | - | - |
| 1777602970 | 13.89° C | 59% | 1013.3 hPa | - | - | - | - |
| 1777602366 | 13.89° C | 59% | 1013.3 hPa | - | - | - | - |
| 1777601761 | 13.89° C | 59% | 1013.7 hPa | - | - | - | - |
| 1777601157 | 13.89° C | 59% | 1013.6 hPa | - | - | - | - |
| 1777600552 | 12.78° C | 59% | 1013.5 hPa | - | - | - | - |
| 1777599947 | 12.78° C | 59% | 1013.8 hPa | - | - | - | - |
| 1777599342 | 12.78° C | 59% | 1013.7 hPa | - | - | - | - |
| 1777598737 | 12.78° C | 55% | 1013.8 hPa | - | - | - | - |
| 1777598133 | 12.78° C | 55% | 1013.9 hPa | - | - | - | - |
| 1777597528 | 12.78° C | 54% | 1013.9 hPa | - | - | - | - |
| 1777596923 | 12.78° C | 56% | 1014 hPa | - | - | - | - |
| 1777596319 | 13.89° C | 57% | 1014.2 hPa | - | - | - | - |
| 1777595714 | 13.89° C | 57% | 1014.2 hPa | - | - | - | - |
| 1777595110 | 13.89° C | 56% | 1014.4 hPa | - | - | - | - |
| 1777594505 | 12.78° C | 56% | 1014.4 hPa | - | - | - | - |
| 1777593901 | 12.78° C | 58% | 1014.4 hPa | - | - | - | - |
| 1777593296 | 12.78° C | 59% | 1014.5 hPa | - | - | - | - |
* Rain since midnight (hover to see other rain measurements)
** Current wind speed in m/s (hover to see current wind gust speed)